Showing default

TIANHUI 5C, 60211

Orbit data source: Space-Track

TIANHUI 5C, 60211 is a payload satellite owned by G. Cehui dili (CN) in SSO that was launched on Thu, 04 Jul 2024 UTC via a CHANG ZHENG 6A launch vehicle from the Taiyaun Space Center, China (TSC). Payload-class satellites include a variety of spacecraft equipped with specific instruments for various scientific and technological missions. These include communications satellites like Starlink; space stations such as the ISS; scientific satellites like the Hubble; Earth observation satellites from companies like Planet Labs, Umbra, and HawkEye 360; GPS; miniature CubeSats for education and research; and military/defense satellites.

Loading next visibility...
Identifier
60211, 2024-126A
Orbit
SSO
Country
Flag of CNCN / PRC
Related business
Manufacturer
DFH
Mission
Operational spacecraft
Bus & Motor
CAST-2000?, Unknown motor
Mass
~1,000 kg wet, ~1,000 kg dry
Launch date (UTC)
2024-07-04 (1 year ago)
Launch vehicle
CHANG ZHENG 6A
Launch site
Taiyaun Space Center, China (TSC)
Object type
Payload
Rocket body
Debris
Shape & HBR
Unknown
Radar Cross Section
Large (>1 m²)

Expand to show TLE details & history
Last TLE update: 19 hours ago

TLE from 19 hours ago
0 TIANHUI 5C
1 60211U 24126A   25260.81253972  .00000482  00000-0  59001-4 0  9990
2 60211  97.8206 267.2987 0002119  94.4421 265.7038 14.87577775 65394
Epoch: 2025-09-17T19:30Z
TLE epoch observation values (Epoch: 2025-09-17T19:30:03.431Z)
Latitude
0.00001°
Longitude
-22.19871°
Altitude
608.652 km
Speed
7.555 km/s
True Right ascension
17h 49m 11s
True Declination
0° 00' 00"
Sunlit
Object was in daylight at epoch
Visualization orbit readout
Latitude
Unknown
Longitude
Unknown
Altitude
Unknown
Speed
Unknown
Apparent Right ascension
Unknown
Apparent Declination
Unknown
Sunlit
N/A
Visualization observer readout
Local Sidereal Time
07:09:17
Azimuth
Unknown
Elevation
Unknown
Doppler factor
Unknown
Orbital elements
Apogee altitude
604.013 km
Perigee altitude
601.054 km
Semi-major axis
6,980.671 km
Eccentricity
0.00021
Inclination
97.8206°
RAAN
267.2987°
Arg. of periapsis
94.4421°
True anomaly
265.67959°
Mean anomaly
265.7038°
Eccentric anomaly
265.69169°
Mean motion
3.72132 °/min
Orbital period
96.74 mins
BSTAR
0.000059001
Loading maneuver chart data...
Computing Atmospheric mass density...
Loading historical data...
Loading historical data...
Loading historical data...
Loading historical data...
Loading historical data...
Loading historical data...
Loading historical data...
Other satellites on launch #126 in the year 2024 (2024-07-04 UTC)

Documentation

Showing up to 5 results
|